GEESAT 2-06

Satellite information

Favourite Embed

Satellite Type and Status

PAYLOADIN ORBIT

Key statistics

Satellite GEESAT 2-06 at a glance.

Uptime

683

Days in orbit

Revolutions

≈ 15.0

Per day

Orbit

LEO

Low Earth Orbit

Inclination

50.0

Latest

Satellite identification and parameters

Extended collection of information and parameters for GEESAT 2-06.

Object identification

Identified? True

Debris? False

Object name: GEESAT 2-06

International designator: 2024-023F

Object number (NORAD): 58910

Object ID (CCSDS): 58910

Country: PEOPLES REPUBLIC OF CHINA (PRC)

Current information (Y/N): Y

RCS size: MEDIUM

Orbital parameters

Period: 95.883 minutes

Inclination: 49.9878 deg

SMA: 6939.375 km

Apoapsis: 565.239 km

Periapsis: 557.241 km

RAAN: 95.8285 deg

Eccentricy: 0.00057624

Argument of periapsis: 45.6421 deg

Mean anomaly: 314.4996 deg

Mean motion: 15.01834982 rev/day

Mean motion (dot): 0.00005043 rev/day2

B* drag term: 0.00040174953 1/REarth

Two-line elements (TLE)

Creation date: Dec. 16, 2025, 2:19 a.m.

Reference frame: TEME

Reference center: EARTH

Epoch: Dec. 15, 2025, 7:55 p.m. UTC

TLE line 0: 0 GEESAT 2-06

TLE line 1: 1 58910U 24023F 25349.82999778 .00005043 00000-0 40175-3 0 9998

TLE line 2: 2 58910 49.9878 95.8285 0005762 45.6421 314.4996 15.01834982102065

Live tracking on map

Real-time ground track for satellite GEESAT 2-06.

In-orbit conjunctions

There are no conjunctions computed for GEESAT 2-06, at the moment. Check back to stay up to date, as we update our databases every day.

Go to all conjunctions

Associated space launch

11 LEO communications satellites for Chinese car manufacturer Geely Automotive for testing autonomous driving/inter-vehicle communication services. They also carry payloads for ocean observation.

GEESAT 2-06 was lifted into orbit during the mission ‘Long March 2C | Geely Constellation Group 02’, on board a Long March 2 space rocket.

The launch took place on Feb. 2, 2024, 11:37 p.m. from Launch Complex 3 (LC-3/LA-1).

For more information about the launch, click the button.

Launch to space Long March 2C | Geely Constellation Group 02
Long March 2C | Geely Constellation Group 02

Agency: N/A

Status: Launch Successful

Launch date: Feb. 2, 2024, 11:37 p.m. UTC

Rocket: Long March 2

Launch pad: Launch Complex 3 (LC-3/LA-1)

Location: Xichang Satellite Launch Center, People's Republic of China

...

Latest news about this satellite

News about space launch
China launches 20 satellites on separate inland and sea rocket launches

A pair of Chinese rockets launched 11 mobility services satellites for an automaker and nine further, diverse satellites into orbit late Friday.


Newsletter sign-up

Weekly statistics, charts and insights to help you stay on top of the space industry.